Location: Newark
(21.1200°N, 73.4000°E)
Time: 00:47:42
(UTC+00:00)

Vanguard 1 Rocket - Pass Details

Date: 24 January 2021
Orbit: 654 x 4223 km, 34.3° (Epoch: 06 March)

Event Time Altitude Azimuth Distance (km) Brightness Sun altitude
Rises 15:06:27 0° 270° (W) 4,194 11.9 -31.2°
Reaches altitude 10° 15:09:41 10° 254° (WSW) 3,634 11.3 -31.9°
Maximum altitude 15:16:45 22° 207° (SSW) 3,638 10.7 -33.5°
Drops below altitude 10° 15:27:36 10° 164° (SSE) 5,767 11.4 -36.0°
Sets 15:35:01 0° 152° (SSE) 7,462 11.9 -37.7°
